Regional Weather Roundup
Issued by NWS Jackson, KY

Home | Current Version | Previous Version | Graphics & Text | Print | Product List | Glossary On
Versions: 1 2 3 4 5 6 7 8 9 10 11 12 13 14 15 16 17 18 19 20 21 22 23 24 25 26 27
000
ASUS43 KJKL 222310
RWRJKL

EAST KENTUCKY HOURLY WEATHER ROUNDUP
NATIONAL WEATHER SERVICE JACKSON KY
700 PM EDT WED MAR 22 2017

NOTE: "FAIR" INDICATES FEW OR NO CLOUDS BELOW 12,000 FEET WITH
NO SIGNIFICANT WEATHER AND/OR OBSTRUCTIONS TO VISIBILITY.

* THESE REPORTS ARE NOT UNDER NWS QUALITY CONTROL AND MAY NOT
  REPORT WEATHER SUCH AS PRECIPITATION AND FOG.

KYZ079-080-083-085-087-088-110-112-115-119-120-230000
...EASTERN KENTUCKY...

CITY           SKY/WX    TMP DP  RH WIND       PRES   REMARKS
JACKSON        CLEAR     46  14  27 VRB3      30.35R
LONDON         CLEAR     49  11  21 N10       30.32R
SOMERSET*      CLEAR     46  19  34 N8        30.35R
MONTICELLO*    CLEAR     49  21  33 N18       30.35R
WILLIAMSBURG*  CLEAR     50  14  23 N9        30.31R
MIDDLESBORO*   CLEAR     53  17  23 NE7       30.30R
HARLAN APT*    CLEAR     50  12  22 N6        30.30R
PIKE CO APT*     N/A     44  16  33 N8        30.35R
BIG SANDY APT* CLEAR     45  15  31 NE9       30.37R
MOREHEAD APT*  CLEAR     45  12  26 VRB6G14   30.41R
ASHLAND*       CLEAR     46  18  31 NE6       30.41R
$$

KYZ035-036-041-042-044-050-067-078-099-230000
...CENTRAL KENTUCKY...

CITY           SKY/WX    TMP DP  RH WIND       PRES   REMARKS
MT STERLING*   CLEAR     43  21  42 NE12      30.40R
FLEMING/MASON* CLEAR     42  16  35 NE10      30.43R
DANVILLE*      CLEAR     43  21  42 NE12      30.39R
LEXINGTON      CLEAR     43  16  33 NE13      30.39R
FRANKFORT      CLEAR     45  14  28 NE10      30.39R
LOUISVILLE     MOSUNNY   48  11  22 NE13G23   30.40R
LEBANON*         N/A     45  18  33 NE9       30.38R
GLASGOW*       SUNNY     49  18  28 NE12      30.35R
BOWLING GREEN  SUNNY     52  15  23 NE12      30.34R
$$

KYZ091>093-OHZ055-061-077-WVZ005-015-034-035-042-230000
...SOUTHERN OHIO/WEST VIRGINIA...

CITY           SKY/WX    TMP DP  RH WIND       PRES   REMARKS
COVINGTON      PTCLDY    40  16  37 NE12      30.43S WCI  33
COLUMBUS       PTCLDY    39  14  36 N12       30.48R WCI  32
DAYTON         CLEAR     36  16  44 E10       30.47S WCI  28
WILMINGTON     CLEAR     36  21  54 NE12      30.45S WCI  28
HUNTINGTON     CLEAR     44  15  31 NE7       30.41R
CHARLESTON     CLEAR     44  12  27 N9        30.39R
PINEVILLE*     CLEAR     45   9  23 MISG      30.38R
BECKLEY        CLEAR     40  11  30 N12       30.31R WCI  33
BLUEFIELD      CLEAR     41  15  35 N7        30.29R
LOGAN CO APT*    N/A     43  10  26 N5        30.35R
$$

VAZ002-007-008-TNZ017-027-036-066-071-230000
...SOUTHWEST VIRGINIA/EAST TENNESSEE...

CITY           SKY/WX    TMP DP  RH WIND       PRES   REMARKS
WISE*          CLEAR     43  12  28 N6        30.30R
JONESVILLE*      N/A     54  14  20 N3        30.30S
ABINGDON*      CLEAR     51  12  21 CALM      30.28R
BRISTOL        PTCLDY    52  16  24 N6        30.28R
MORRISTOWN*    CLEAR     55  16  21 N6G12     30.25R
SEVIERVILLE*   CLEAR     55  19  24 VRB3      30.25R
KNOXVILLE      MOCLDY    58  18  21 N10       30.25R
LAFOLLETTE*    CLEAR     54  16  22 VRB6      30.31R
OAK RIDGE      PTCLDY    58  17  20 VRB3      30.28R
CROSSVILLE     SUNNY     53  17  24 N10       30.26R
NASHVILLE      PTSUNNY   55  18  23 NE12      30.30R
$$

...KEY TO REMARKS...
VSB - VISIBILITY IN MILES
WCI - WIND CHILL INDEX
HX  - HEAT INDEX

$$




USA.gov is the U.S. government's official web portal to all federal, state and local government web resources and services.